Year,Month,Day,Hour,Minute,Value (Times are PST for barometer in hPa)
2017,11,26,00,00,997.36
2017,11,26,00,01,997.19
2017,11,26,00,02,997.09
2017,11,26,00,03,997.05
2017,11,26,00,04,996.98
2017,11,26,00,05,996.82
2017,11,26,00,06,996.82
2017,11,26,00,07,996.78
2017,11,26,00,08,996.78
2017,11,26,00,09,996.72
2017,11,26,00,10,996.78
2017,11,26,00,11,996.74
2017,11,26,00,12,996.61
2017,11,26,00,13,996.59
2017,11,26,00,14,996.72
2017,11,26,00,15,996.65
2017,11,26,00,16,996.65
2017,11,26,00,17,996.58
2017,11,26,00,18,996.51
2017,11,26,00,19,996.41
2017,11,26,00,20,996.48
2017,11,26,00,21,996.41
2017,11,26,00,22,996.47
2017,11,26,00,23,996.28
2017,11,26,00,24,996.17
2017,11,26,00,25,996.17
2017,11,26,00,26,996.24
2017,11,26,00,27,996.29
2017,11,26,00,28,996.38
2017,11,26,00,29,996.38
2017,11,26,00,30,996.34
2017,11,26,00,31,996.33
2017,11,26,00,32,996.23
2017,11,26,00,33,996.14
2017,11,26,00,34,996.11
2017,11,26,00,35,996.08
2017,11,26,00,36,996.14
2017,11,26,00,37,996.07
2017,11,26,00,38,996.14
2017,11,26,00,39,996.17
2017,11,26,00,40,996.14
2017,11,26,00,41,996.14
2017,11,26,00,42,996.11
2017,11,26,00,43,996.07
2017,11,26,00,44,996.11
2017,11,26,00,45,996.24
2017,11,26,00,46,996.31
2017,11,26,00,47,996.33
2017,11,26,00,48,996.24
2017,11,26,00,49,996.21
2017,11,26,00,50,996.14
2017,11,26,00,51,996.07
2017,11,26,00,52,996.08
2017,11,26,00,53,996.21
2017,11,26,00,54,996.28
2017,11,26,00,55,996.28
2017,11,26,00,56,996.21
2017,11,26,00,57,996.17
2017,11,26,00,58,996.17
2017,11,26,00,59,996.17
2017,11,26,01,00,996.11
2017,11,26,01,01,996.07
2017,11,26,01,02,996.11
2017,11,26,01,03,996.11
2017,11,26,01,04,996.16
2017,11,26,01,05,996.03
2017,11,26,01,06,995.94
2017,11,26,01,07,995.98
2017,11,26,01,08,996.11
2017,11,26,01,09,996.17
2017,11,26,01,10,996.23
2017,11,26,01,11,996.07
2017,11,26,01,12,996.14
2017,11,26,01,13,996.00
2017,11,26,01,14,995.90
2017,11,26,01,15,995.87
2017,11,26,01,16,995.87
2017,11,26,01,17,995.90
2017,11,26,01,18,995.84
2017,11,26,01,19,995.80
2017,11,26,01,20,995.84
2017,11,26,01,21,995.95
2017,11,26,01,22,996.14
2017,11,26,01,23,996.06
2017,11,26,01,24,995.95
2017,11,26,01,25,996.01
2017,11,26,01,26,996.07
2017,11,26,01,27,996.04
2017,11,26,01,28,996.04
2017,11,26,01,29,995.97
2017,11,26,01,30,996.01
2017,11,26,01,31,995.96
2017,11,26,01,32,995.83
2017,11,26,01,33,995.73
2017,11,26,01,34,995.67
2017,11,26,01,35,995.73
2017,11,26,01,36,995.84
2017,11,26,01,37,995.76
2017,11,26,01,38,995.67
2017,11,26,01,39,995.69
2017,11,26,01,40,995.60
2017,11,26,01,41,995.56
2017,11,26,01,42,995.50
2017,11,26,01,43,995.53
2017,11,26,01,44,995.46
2017,11,26,01,45,995.46
2017,11,26,01,46,995.46
2017,11,26,01,47,995.46
2017,11,26,01,48,995.49
2017,11,26,01,49,995.33
2017,11,26,01,50,995.35
2017,11,26,01,51,995.29
2017,11,26,01,52,995.29
2017,11,26,01,53,995.29
2017,11,26,01,54,995.26
2017,11,26,01,55,995.22
2017,11,26,01,56,995.09
2017,11,26,01,57,995.12
2017,11,26,01,58,995.12
2017,11,26,01,59,995.19
2017,11,26,02,00,995.09
2017,11,26,02,01,994.98
2017,11,26,02,02,994.79
2017,11,26,02,03,994.85
2017,11,26,02,04,994.85
2017,11,26,02,05,994.82
2017,11,26,02,06,994.91
2017,11,26,02,07,994.79
2017,11,26,02,08,994.83
2017,11,26,02,09,994.89
2017,11,26,02,10,994.82
2017,11,26,02,11,994.68
2017,11,26,02,12,994.72
2017,11,26,02,13,994.72
2017,11,26,02,14,994.79
2017,11,26,02,15,994.79
2017,11,26,02,16,994.68
2017,11,26,02,17,994.82
2017,11,26,02,18,994.75
2017,11,26,02,19,994.65
2017,11,26,02,20,994.58
2017,11,26,02,21,994.62
2017,11,26,02,22,994.52
2017,11,26,02,23,994.58
2017,11,26,02,24,994.52
2017,11,26,02,25,994.59
2017,11,26,02,26,994.66
2017,11,26,02,27,994.72
2017,11,26,02,28,994.72
2017,11,26,02,29,994.64
2017,11,26,02,30,994.41
2017,11,26,02,31,994.45
2017,11,26,02,32,994.41
2017,11,26,02,33,994.26
2017,11,26,02,34,994.04
2017,11,26,02,35,993.97
2017,11,26,02,36,994.05
2017,11,26,02,37,994.21
2017,11,26,02,38,994.28
2017,11,26,02,39,994.24
2017,11,26,02,40,994.17
2017,11,26,02,41,994.11
2017,11,26,02,42,994.10
2017,11,26,02,43,994.01
2017,11,26,02,44,993.97
2017,11,26,02,45,993.87
2017,11,26,02,46,993.94
2017,11,26,02,47,993.88
2017,11,26,02,48,994.01
2017,11,26,02,49,993.97
2017,11,26,02,50,994.04
2017,11,26,02,51,994.07
2017,11,26,02,52,994.07
2017,11,26,02,53,994.04
2017,11,26,02,54,993.91
2017,11,26,02,55,993.91
2017,11,26,02,56,993.84
2017,11,26,02,57,993.80
2017,11,26,02,58,993.87
2017,11,26,02,59,993.91
2017,11,26,03,00,993.87
2017,11,26,03,01,993.80
2017,11,26,03,02,993.69
2017,11,26,03,03,993.50
2017,11,26,03,04,993.54
2017,11,26,03,05,993.67
2017,11,26,03,06,993.60
2017,11,26,03,07,993.53
2017,11,26,03,08,993.53
2017,11,26,03,09,993.60
2017,11,26,03,10,993.63
2017,11,26,03,11,993.57
2017,11,26,03,12,993.57
2017,11,26,03,13,993.57
2017,11,26,03,14,993.53
2017,11,26,03,15,993.51
2017,11,26,03,16,993.57
2017,11,26,03,17,993.67
2017,11,26,03,18,993.70
2017,11,26,03,19,993.74
2017,11,26,03,20,993.63
2017,11,26,03,21,993.67
2017,11,26,03,22,993.63
2017,11,26,03,23,993.60
2017,11,26,03,24,993.60
2017,11,26,03,25,993.64
2017,11,26,03,26,993.71
2017,11,26,03,27,993.91
2017,11,26,03,28,993.97
2017,11,26,03,29,994.04
2017,11,26,03,30,994.07
2017,11,26,03,31,994.01
2017,11,26,03,32,994.04
2017,11,26,03,33,994.11
2017,11,26,03,34,994.03
2017,11,26,03,35,993.80
2017,11,26,03,36,993.70
2017,11,26,03,37,993.74
2017,11,26,03,38,993.77
2017,11,26,03,39,993.87
2017,11,26,03,40,993.94
2017,11,26,03,41,993.94
2017,11,26,03,42,993.97
2017,11,26,03,43,994.01
2017,11,26,03,44,993.94
2017,11,26,03,45,993.95
2017,11,26,03,46,994.21
2017,11,26,03,47,994.21
2017,11,26,03,48,994.14
2017,11,26,03,49,994.06
2017,11,26,03,50,993.86
2017,11,26,03,51,993.67
2017,11,26,03,52,993.63
2017,11,26,03,53,993.61
2017,11,26,03,54,993.78
2017,11,26,03,55,994.04
2017,11,26,03,56,994.11
2017,11,26,03,57,994.11
2017,11,26,03,58,994.07
2017,11,26,03,59,994.11
2017,11,26,04,00,994.07
2017,11,26,04,01,994.18
2017,11,26,04,02,994.21
2017,11,26,04,03,994.13
2017,11,26,04,04,993.97
2017,11,26,04,05,993.87
2017,11,26,04,06,993.95
2017,11,26,04,07,994.01
2017,11,26,04,08,994.07
2017,11,26,04,09,994.11
2017,11,26,04,10,994.18
2017,11,26,04,11,994.24
2017,11,26,04,12,994.24
2017,11,26,04,13,994.28
2017,11,26,04,14,994.32
2017,11,26,04,15,994.38
2017,11,26,04,16,994.39
2017,11,26,04,17,994.45
2017,11,26,04,18,994.38
2017,11,26,04,19,994.38
2017,11,26,04,20,994.41
2017,11,26,04,21,994.48
2017,11,26,04,22,994.48
2017,11,26,04,23,994.48
2017,11,26,04,24,994.55
2017,11,26,04,25,994.52
2017,11,26,04,26,994.48
2017,11,26,04,27,994.41
2017,11,26,04,28,994.45
2017,11,26,04,29,994.38
2017,11,26,04,30,994.24
2017,11,26,04,31,994.21
2017,11,26,04,32,994.17
2017,11,26,04,33,994.06
2017,11,26,04,34,993.91
2017,11,26,04,35,993.94
2017,11,26,04,36,994.01
2017,11,26,04,37,994.04
2017,11,26,04,38,993.97
2017,11,26,04,39,993.91
2017,11,26,04,40,993.91
2017,11,26,04,41,993.86
2017,11,26,04,42,993.80
2017,11,26,04,43,993.87
2017,11,26,04,44,993.91
2017,11,26,04,45,993.87
2017,11,26,04,46,993.77
2017,11,26,04,47,993.78
2017,11,26,04,48,993.91
2017,11,26,04,49,993.94
2017,11,26,04,50,994.02
2017,11,26,04,51,994.11
2017,11,26,04,52,994.11
2017,11,26,04,53,994.21
2017,11,26,04,54,994.28
2017,11,26,04,55,994.31
2017,11,26,04,56,994.31
2017,11,26,04,57,994.28
2017,11,26,04,58,994.24
2017,11,26,04,59,994.24
2017,11,26,05,00,994.18
2017,11,26,05,01,994.14
2017,11,26,05,02,994.21
2017,11,26,05,03,994.21
2017,11,26,05,04,994.14
2017,11,26,05,05,994.04
2017,11,26,05,06,993.96
2017,11,26,05,07,993.77
2017,11,26,05,08,993.71
2017,11,26,05,09,993.88
2017,11,26,05,10,994.01
2017,11,26,05,11,994.04
2017,11,26,05,12,994.03
2017,11,26,05,13,993.94
2017,11,26,05,14,993.91
2017,11,26,05,15,994.01
2017,11,26,05,16,993.97
2017,11,26,05,17,993.91
2017,11,26,05,18,993.91
2017,11,26,05,19,993.84
2017,11,26,05,20,993.80
2017,11,26,05,21,993.80
2017,11,26,05,22,993.91
2017,11,26,05,23,993.87
2017,11,26,05,24,993.84
2017,11,26,05,25,993.87
2017,11,26,05,26,993.94
2017,11,26,05,27,993.97
2017,11,26,05,28,993.97
2017,11,26,05,29,994.01
2017,11,26,05,30,993.91
2017,11,26,05,31,993.84
2017,11,26,05,32,993.77
2017,11,26,05,33,993.74
2017,11,26,05,34,993.74
2017,11,26,05,35,993.80
2017,11,26,05,36,993.91
2017,11,26,05,37,994.01
2017,11,26,05,38,994.07
2017,11,26,05,39,994.11
2017,11,26,05,40,994.11
2017,11,26,05,41,994.18
2017,11,26,05,42,994.24
2017,11,26,05,43,994.35
2017,11,26,05,44,994.35
2017,11,26,05,45,994.39
2017,11,26,05,46,994.46
2017,11,26,05,47,994.52
2017,11,26,05,48,994.58
2017,11,26,05,49,994.62
2017,11,26,05,50,994.68
2017,11,26,05,51,994.68
2017,11,26,05,52,994.62
2017,11,26,05,53,994.62
2017,11,26,05,54,994.62
2017,11,26,05,55,994.65
2017,11,26,05,56,994.72
2017,11,26,05,57,994.79
2017,11,26,05,58,994.82
2017,11,26,05,59,994.82
2017,11,26,06,00,994.92
2017,11,26,06,01,995.02
2017,11,26,06,02,995.06
2017,11,26,06,03,995.06
2017,11,26,06,04,995.06
2017,11,26,06,05,995.02
2017,11,26,06,06,994.96
2017,11,26,06,07,994.96
2017,11,26,06,08,994.96
2017,11,26,06,09,994.96
2017,11,26,06,10,994.89
2017,11,26,06,11,994.92
2017,11,26,06,12,994.99
2017,11,26,06,13,995.02
2017,11,26,06,14,994.99
2017,11,26,06,15,994.96
2017,11,26,06,16,995.02
2017,11,26,06,17,994.99
2017,11,26,06,18,994.96
2017,11,26,06,19,994.85
2017,11,26,06,20,994.79
2017,11,26,06,21,994.72
2017,11,26,06,22,994.68
2017,11,26,06,23,994.79
2017,11,26,06,24,994.82
2017,11,26,06,25,994.82
2017,11,26,06,26,994.82
2017,11,26,06,27,994.82
2017,11,26,06,28,994.82
2017,11,26,06,29,994.85
2017,11,26,06,30,994.85
2017,11,26,06,31,994.96
2017,11,26,06,32,995.06
2017,11,26,06,33,995.12
2017,11,26,06,34,995.12
2017,11,26,06,35,995.19
2017,11,26,06,36,995.20
2017,11,26,06,37,995.36
2017,11,26,06,38,995.43
2017,11,26,06,39,995.50
2017,11,26,06,40,995.53
2017,11,26,06,41,995.53
2017,11,26,06,42,995.50
2017,11,26,06,43,995.46
2017,11,26,06,44,995.53
2017,11,26,06,45,995.50
2017,11,26,06,46,995.53
2017,11,26,06,47,995.57
2017,11,26,06,48,995.63
2017,11,26,06,49,995.63
2017,11,26,06,50,995.63
2017,11,26,06,51,995.56
2017,11,26,06,52,995.50
2017,11,26,06,53,995.46
2017,11,26,06,54,995.46
2017,11,26,06,55,995.46
2017,11,26,06,56,995.33
2017,11,26,06,57,995.43
2017,11,26,06,58,995.53
2017,11,26,06,59,995.43
2017,11,26,07,00,995.33
2017,11,26,07,01,995.33
2017,11,26,07,02,995.40
2017,11,26,07,03,995.36
2017,11,26,07,04,995.40
2017,11,26,07,05,995.29
2017,11,26,07,06,995.26
2017,11,26,07,07,995.16
2017,11,26,07,08,995.19
2017,11,26,07,09,995.20
2017,11,26,07,10,995.29
2017,11,26,07,11,995.19
2017,11,26,07,12,995.26
2017,11,26,07,13,995.19
2017,11,26,07,14,995.16
2017,11,26,07,15,995.23
2017,11,26,07,16,995.33
2017,11,26,07,17,995.40
2017,11,26,07,18,995.33
2017,11,26,07,19,995.26
2017,11,26,07,20,995.23
2017,11,26,07,21,995.26
2017,11,26,07,22,995.29
2017,11,26,07,23,995.23
2017,11,26,07,24,995.26
2017,11,26,07,25,995.19
2017,11,26,07,26,995.19
2017,11,26,07,27,995.23
2017,11,26,07,28,995.19
2017,11,26,07,29,995.12
2017,11,26,07,30,995.19
2017,11,26,07,31,995.12
2017,11,26,07,32,995.06
2017,11,26,07,33,994.99
2017,11,26,07,34,995.02
2017,11,26,07,35,995.06
2017,11,26,07,36,995.02
2017,11,26,07,37,994.99
2017,11,26,07,38,995.09
2017,11,26,07,39,995.02
2017,11,26,07,40,995.12
2017,11,26,07,41,995.18
2017,11,26,07,42,995.09
2017,11,26,07,43,995.16
2017,11,26,07,44,995.23
2017,11,26,07,45,995.26
2017,11,26,07,46,995.29
2017,11,26,07,47,995.23
2017,11,26,07,48,995.36
2017,11,26,07,49,995.40
2017,11,26,07,50,995.50
2017,11,26,07,51,995.55
2017,11,26,07,52,995.44
2017,11,26,07,53,995.63
2017,11,26,07,54,995.67
2017,11,26,07,55,995.63
2017,11,26,07,56,995.73
2017,11,26,07,57,995.80
2017,11,26,07,58,995.80
2017,11,26,07,59,995.77
2017,11,26,08,00,995.80
2017,11,26,08,01,995.84
2017,11,26,08,02,995.84
2017,11,26,08,03,995.84
2017,11,26,08,04,995.80
2017,11,26,08,05,995.84
2017,11,26,08,06,995.77
2017,11,26,08,07,995.73
2017,11,26,08,08,995.67
2017,11,26,08,09,995.70
2017,11,26,08,10,995.73
2017,11,26,08,11,995.67
2017,11,26,08,12,995.73
2017,11,26,08,13,995.73
2017,11,26,08,14,995.63
2017,11,26,08,15,995.67
2017,11,26,08,16,995.60
2017,11,26,08,17,995.60
2017,11,26,08,18,995.56
2017,11,26,08,19,995.60
2017,11,26,08,20,995.56
2017,11,26,08,21,995.53
2017,11,26,08,22,995.56
2017,11,26,08,23,995.60
2017,11,26,08,24,995.63
2017,11,26,08,25,995.67
2017,11,26,08,26,995.70
2017,11,26,08,27,995.60
2017,11,26,08,28,995.67
2017,11,26,08,29,995.67
2017,11,26,08,30,995.70
2017,11,26,08,31,995.73
2017,11,26,08,32,995.73
2017,11,26,08,33,995.80
2017,11,26,08,34,995.80
2017,11,26,08,35,995.87
2017,11,26,08,36,995.87
2017,11,26,08,37,995.84
2017,11,26,08,38,995.84
2017,11,26,08,39,995.90
2017,11,26,08,40,995.94
2017,11,26,08,41,995.90
2017,11,26,08,42,995.87
2017,11,26,08,43,995.87
2017,11,26,08,44,995.84
2017,11,26,08,45,995.94
2017,11,26,08,46,995.90
2017,11,26,08,47,995.94
2017,11,26,08,48,995.97
2017,11,26,08,49,995.90
2017,11,26,08,50,995.97
2017,11,26,08,51,996.01
2017,11,26,08,52,996.04
2017,11,26,08,53,996.01
2017,11,26,08,54,996.04
2017,11,26,08,55,996.04
2017,11,26,08,56,996.07
2017,11,26,08,57,996.04
2017,11,26,08,58,996.04
2017,11,26,08,59,996.14
2017,11,26,09,00,996.14
2017,11,26,09,01,996.11
2017,11,26,09,02,996.14
2017,11,26,09,03,996.17
2017,11,26,09,04,996.20
2017,11,26,09,05,996.05
2017,11,26,09,06,996.21
2017,11,26,09,07,996.28
2017,11,26,09,08,996.17
2017,11,26,09,09,996.24
2017,11,26,09,10,996.24
2017,11,26,09,11,996.28
2017,11,26,09,12,996.28
2017,11,26,09,13,996.24
2017,11,26,09,14,996.28
2017,11,26,09,15,996.24
2017,11,26,09,16,996.14
2017,11,26,09,17,996.21
2017,11,26,09,18,996.17
2017,11,26,09,19,996.17
2017,11,26,09,20,996.24
2017,11,26,09,21,996.14
2017,11,26,09,22,996.17
2017,11,26,09,23,996.24
2017,11,26,09,24,996.21
2017,11,26,09,25,996.14
2017,11,26,09,26,996.11
2017,11,26,09,27,996.17
2017,11,26,09,28,996.07
2017,11,26,09,29,996.11
2017,11,26,09,30,996.11
2017,11,26,09,31,996.14
2017,11,26,09,32,996.14
2017,11,26,09,33,996.17
2017,11,26,09,34,996.04
2017,11,26,09,35,996.11
2017,11,26,09,36,996.11
2017,11,26,09,37,996.21
2017,11,26,09,38,996.28
2017,11,26,09,39,996.31
2017,11,26,09,40,996.34
2017,11,26,09,41,996.38
2017,11,26,09,42,996.32
2017,11,26,09,43,996.45
2017,11,26,09,44,996.38
2017,11,26,09,45,996.41
2017,11,26,09,46,996.41
2017,11,26,09,47,996.41
2017,11,26,09,48,996.38
2017,11,26,09,49,996.31
2017,11,26,09,50,996.45
2017,11,26,09,51,996.45
2017,11,26,09,52,996.51
2017,11,26,09,53,996.60
2017,11,26,09,54,996.41
2017,11,26,09,55,996.48
2017,11,26,09,56,996.48
2017,11,26,09,57,996.45
2017,11,26,09,58,996.41
2017,11,26,09,59,996.48
2017,11,26,10,00,996.38
2017,11,26,10,01,996.34
2017,11,26,10,02,996.41
2017,11,26,10,03,996.38
2017,11,26,10,04,996.51
2017,11,26,10,05,996.45
2017,11,26,10,06,996.45
2017,11,26,10,07,996.41
2017,11,26,10,08,996.45
2017,11,26,10,09,996.48
2017,11,26,10,10,996.51
2017,11,26,10,11,996.58
2017,11,26,10,12,996.51
2017,11,26,10,13,996.61
2017,11,26,10,14,996.68
2017,11,26,10,15,996.68
2017,11,26,10,16,996.75
2017,11,26,10,17,996.78
2017,11,26,10,18,996.75
2017,11,26,10,19,996.78
2017,11,26,10,20,996.82
2017,11,26,10,21,996.85
2017,11,26,10,22,996.89
2017,11,26,10,23,996.85
2017,11,26,10,24,996.85
2017,11,26,10,25,996.85
2017,11,26,10,26,996.89
2017,11,26,10,27,996.85
2017,11,26,10,28,996.89
2017,11,26,10,29,996.92
2017,11,26,10,30,996.95
2017,11,26,10,31,997.02
2017,11,26,10,32,997.02
2017,11,26,10,33,997.05
2017,11,26,10,34,997.09
2017,11,26,10,35,997.19
2017,11,26,10,36,997.25
2017,11,26,10,37,997.09
2017,11,26,10,38,997.12
2017,11,26,10,39,997.09
2017,11,26,10,40,997.12
2017,11,26,10,41,997.12
2017,11,26,10,42,997.19
2017,11,26,10,43,997.22
2017,11,26,10,44,997.26
2017,11,26,10,45,997.39
2017,11,26,10,46,997.39
2017,11,26,10,47,997.36
2017,11,26,10,48,997.43
2017,11,26,10,49,997.50
2017,11,26,10,50,997.60
2017,11,26,10,51,997.63
2017,11,26,10,52,997.63
2017,11,26,10,53,997.70
2017,11,26,10,54,997.70
2017,11,26,10,55,997.70
2017,11,26,10,56,997.73
2017,11,26,10,57,997.70
2017,11,26,10,58,997.63
2017,11,26,10,59,997.70
2017,11,26,11,00,997.73
2017,11,26,11,01,997.77
2017,11,26,11,02,997.64
2017,11,26,11,03,997.77
2017,11,26,11,04,997.73
2017,11,26,11,05,997.73
2017,11,26,11,06,997.77
2017,11,26,11,07,997.80
2017,11,26,11,08,997.83
2017,11,26,11,09,997.90
2017,11,26,11,10,997.87
2017,11,26,11,11,997.90
2017,11,26,11,12,997.97
2017,11,26,11,13,998.00
2017,11,26,11,14,998.07
2017,11,26,11,15,998.10
2017,11,26,11,16,998.17
2017,11,26,11,17,998.21
2017,11,26,11,18,998.21
2017,11,26,11,19,998.31
2017,11,26,11,20,998.34
2017,11,26,11,21,998.44
2017,11,26,11,22,998.34
2017,11,26,11,23,998.44
2017,11,26,11,24,998.54
2017,11,26,11,25,998.61
2017,11,26,11,26,998.51
2017,11,26,11,27,998.51
2017,11,26,11,28,998.51
2017,11,26,11,29,998.41
2017,11,26,11,30,998.58
2017,11,26,11,31,998.58
2017,11,26,11,32,998.65
2017,11,26,11,33,998.78
2017,11,26,11,34,998.82
2017,11,26,11,35,998.78
2017,11,26,11,36,998.78
2017,11,26,11,37,998.68
2017,11,26,11,38,998.58
2017,11,26,11,39,998.58
2017,11,26,11,40,998.54
2017,11,26,11,41,998.44
2017,11,26,11,42,998.30
2017,11,26,11,43,998.17
2017,11,26,11,44,998.27
2017,11,26,11,45,998.24
2017,11,26,11,46,998.31
2017,11,26,11,47,998.31
2017,11,26,11,48,998.31
2017,11,26,11,49,998.38
2017,11,26,11,50,998.31
2017,11,26,11,51,998.27
2017,11,26,11,52,998.21
2017,11,26,11,53,998.21
2017,11,26,11,54,998.17
2017,11,26,11,55,998.17
2017,11,26,11,56,998.17
2017,11,26,11,57,998.24
2017,11,26,11,58,998.17
2017,11,26,11,59,998.04
2017,11,26,12,00,998.07
2017,11,26,12,01,997.94
2017,11,26,12,02,997.83
2017,11,26,12,03,997.87
2017,11,26,12,04,997.87
2017,11,26,12,05,997.83
2017,11,26,12,06,997.87
2017,11,26,12,07,997.90
2017,11,26,12,08,998.00
2017,11,26,12,09,998.10
2017,11,26,12,10,998.14
2017,11,26,12,11,998.21
2017,11,26,12,12,998.27
2017,11,26,12,13,998.27
2017,11,26,12,14,998.31
2017,11,26,12,15,998.27
2017,11,26,12,16,998.21
2017,11,26,12,17,998.24
2017,11,26,12,18,998.27
2017,11,26,12,19,998.27
2017,11,26,12,20,998.34
2017,11,26,12,21,998.31
2017,11,26,12,22,998.44
2017,11,26,12,23,998.48
2017,11,26,12,24,998.61
2017,11,26,12,25,998.61
2017,11,26,12,26,998.68
2017,11,26,12,27,998.65
2017,11,26,12,28,998.68
2017,11,26,12,29,998.75
2017,11,26,12,30,998.85
2017,11,26,12,31,998.82
2017,11,26,12,32,998.82
2017,11,26,12,33,998.85
2017,11,26,12,34,998.85
2017,11,26,12,35,998.88
2017,11,26,12,36,998.88
2017,11,26,12,37,998.88
2017,11,26,12,38,998.88
2017,11,26,12,39,998.95
2017,11,26,12,40,998.99
2017,11,26,12,41,999.09
2017,11,26,12,42,999.02
2017,11,26,12,43,998.95
2017,11,26,12,44,998.99
2017,11,26,12,45,998.92
2017,11,26,12,46,998.95
2017,11,26,12,47,999.02
2017,11,26,12,48,999.02
2017,11,26,12,49,998.95
2017,11,26,12,50,999.02
2017,11,26,12,51,999.05
2017,11,26,12,52,999.02
2017,11,26,12,53,999.02
2017,11,26,12,54,999.12
2017,11,26,12,55,999.05
2017,11,26,12,56,999.12
2017,11,26,12,57,999.05
2017,11,26,12,58,999.02
2017,11,26,12,59,999.05
2017,11,26,13,00,999.02
2017,11,26,13,01,999.02
2017,11,26,13,02,998.95
2017,11,26,13,03,998.92
2017,11,26,13,04,998.92
2017,11,26,13,05,998.99
2017,11,26,13,06,998.99
2017,11,26,13,07,999.02
2017,11,26,13,08,998.99
2017,11,26,13,09,998.96
2017,11,26,13,10,999.09
2017,11,26,13,11,999.12
2017,11,26,13,12,999.16
2017,11,26,13,13,999.29
2017,11,26,13,14,999.29
2017,11,26,13,15,999.36
2017,11,26,13,16,999.32
2017,11,26,13,17,999.39
2017,11,26,13,18,999.43
2017,11,26,13,19,999.43
2017,11,26,13,20,999.43
2017,11,26,13,21,999.39
2017,11,26,13,22,999.36
2017,11,26,13,23,999.39
2017,11,26,13,24,999.32
2017,11,26,13,25,999.29
2017,11,26,13,26,999.36
2017,11,26,13,27,999.32
2017,11,26,13,28,999.29
2017,11,26,13,29,999.26
2017,11,26,13,30,999.12
2017,11,26,13,31,999.15
2017,11,26,13,32,999.19
2017,11,26,13,33,999.12
2017,11,26,13,34,999.19
2017,11,26,13,35,999.26
2017,11,26,13,36,999.26
2017,11,26,13,37,999.26
2017,11,26,13,38,999.29
2017,11,26,13,39,999.19
2017,11,26,13,40,999.22
2017,11,26,13,41,999.29
2017,11,26,13,42,999.32
2017,11,26,13,43,999.26
2017,11,26,13,44,999.29
2017,11,26,13,45,999.26
2017,11,26,13,46,999.19
2017,11,26,13,47,999.29
2017,11,26,13,48,999.29
2017,11,26,13,49,999.37
2017,11,26,13,50,999.56
2017,11,26,13,51,999.49
2017,11,26,13,52,999.56
2017,11,26,13,53,999.53
2017,11,26,13,54,999.59
2017,11,26,13,55,999.73
2017,11,26,13,56,999.73
2017,11,26,13,57,999.73
2017,11,26,13,58,999.76
2017,11,26,13,59,999.87
2017,11,26,14,00,999.90
2017,11,26,14,01,1000.00
2017,11,26,14,02,1000.10
2017,11,26,14,03,1000.14
2017,11,26,14,04,1000.24
2017,11,26,14,05,1000.17
2017,11,26,14,06,1000.20
2017,11,26,14,07,1000.20
2017,11,26,14,08,1000.20
2017,11,26,14,09,1000.20
2017,11,26,14,10,1000.17
2017,11,26,14,11,1000.17
2017,11,26,14,12,1000.17
2017,11,26,14,13,1000.20
2017,11,26,14,14,1000.20
2017,11,26,14,15,1000.24
2017,11,26,14,16,1000.27
2017,11,26,14,17,1000.34
2017,11,26,14,18,1000.27
2017,11,26,14,19,1000.24
2017,11,26,14,20,1000.19
2017,11,26,14,21,1000.03
2017,11,26,14,22,999.97
2017,11,26,14,23,999.90
2017,11,26,14,24,999.90
2017,11,26,14,25,1000.00
2017,11,26,14,26,1000.14
2017,11,26,14,27,1000.27
2017,11,26,14,28,1000.34
2017,11,26,14,29,1000.31
2017,11,26,14,30,1000.48
2017,11,26,14,31,1000.48
2017,11,26,14,32,1000.44
2017,11,26,14,33,1000.44
2017,11,26,14,34,1000.41
2017,11,26,14,35,1000.48
2017,11,26,14,36,1000.58
2017,11,26,14,37,1000.71
2017,11,26,14,38,1000.85
2017,11,26,14,39,1000.95
2017,11,26,14,40,1000.95
2017,11,26,14,41,1000.98
2017,11,26,14,42,1000.85
2017,11,26,14,43,1000.78
2017,11,26,14,44,1000.81
2017,11,26,14,45,1000.85
2017,11,26,14,46,1000.85
2017,11,26,14,47,1000.82
2017,11,26,14,48,1000.95
2017,11,26,14,49,1000.95
2017,11,26,14,50,1000.95
2017,11,26,14,51,1000.98
2017,11,26,14,52,1001.05
2017,11,26,14,53,1001.05
2017,11,26,14,54,1001.05
2017,11,26,14,55,1001.19
2017,11,26,14,56,1001.19
2017,11,26,14,57,1001.29
2017,11,26,14,58,1001.29
2017,11,26,14,59,1001.36
2017,11,26,15,00,1001.39
2017,11,26,15,01,1001.42
2017,11,26,15,02,1001.46
2017,11,26,15,03,1001.49
2017,11,26,15,04,1001.56
2017,11,26,15,05,1001.59
2017,11,26,15,06,1001.69
2017,11,26,15,07,1001.76
2017,11,26,15,08,1001.83
2017,11,26,15,09,1001.86
2017,11,26,15,10,1001.90
2017,11,26,15,11,1001.97
2017,11,26,15,12,1002.03
2017,11,26,15,13,1002.10
2017,11,26,15,14,1002.03
2017,11,26,15,15,1001.97
2017,11,26,15,16,1001.86
2017,11,26,15,17,1001.86
2017,11,26,15,18,1001.73
2017,11,26,15,19,1001.73
2017,11,26,15,20,1001.69
2017,11,26,15,21,1001.76
2017,11,26,15,22,1001.73
2017,11,26,15,23,1001.76
2017,11,26,15,24,1001.86
2017,11,26,15,25,1001.93
2017,11,26,15,26,1001.97
2017,11,26,15,27,1001.97
2017,11,26,15,28,1002.00
2017,11,26,15,29,1002.00
2017,11,26,15,30,1002.03
2017,11,26,15,31,1002.03
2017,11,26,15,32,1002.07
2017,11,26,15,33,1002.10
2017,11,26,15,34,1002.10
2017,11,26,15,35,1002.13
2017,11,26,15,36,1002.17
2017,11,26,15,37,1002.17
2017,11,26,15,38,1002.20
2017,11,26,15,39,1002.20
2017,11,26,15,40,1002.24
2017,11,26,15,41,1002.27
2017,11,26,15,42,1002.30
2017,11,26,15,43,1002.37
2017,11,26,15,44,1002.34
2017,11,26,15,45,1002.37
2017,11,26,15,46,1002.37
2017,11,26,15,47,1002.41
2017,11,26,15,48,1002.47
2017,11,26,15,49,1002.47
2017,11,26,15,50,1002.51
2017,11,26,15,51,1002.51
2017,11,26,15,52,1002.51
2017,11,26,15,53,1002.57
2017,11,26,15,54,1002.54
2017,11,26,15,55,1002.61
2017,11,26,15,56,1002.61
2017,11,26,15,57,1002.54
2017,11,26,15,58,1002.57
2017,11,26,15,59,1002.68
2017,11,26,16,00,1002.71
2017,11,26,16,01,1002.71
2017,11,26,16,02,1002.78
2017,11,26,16,03,1002.81
2017,11,26,16,04,1002.88
2017,11,26,16,05,1002.81
2017,11,26,16,06,1002.88
2017,11,26,16,07,1002.91
2017,11,26,16,08,1002.88
2017,11,26,16,09,1002.91
2017,11,26,16,10,1002.91
2017,11,26,16,11,1002.95
2017,11,26,16,12,1002.98
2017,11,26,16,13,1003.01
2017,11,26,16,14,1003.01
2017,11,26,16,15,1003.01
2017,11,26,16,16,1003.01
2017,11,26,16,17,1002.98
2017,11,26,16,18,1002.91
2017,11,26,16,19,1002.98
2017,11,26,16,20,1002.98
2017,11,26,16,21,1002.95
2017,11,26,16,22,1002.95
2017,11,26,16,23,1002.98
2017,11,26,16,24,1002.95
2017,11,26,16,25,1002.91
2017,11,26,16,26,1002.95
2017,11,26,16,27,1003.08
2017,11,26,16,28,1003.12
2017,11,26,16,29,1003.22